Dewpoint
73 72 71 70 64 43 44 43 44 45 45 47 50 52 53 55 56 48 50 55 61 64 67 71 76 75 75 75 75 75 75 75 75 75 74 74 74 74 73 73 74 73 74 71 73 74 74 73 73
70 70 71 65 50 39 42 45 46 48 47 49 52 52 55 57 53 47 50 58 60 62 64 70 76 76 75 75 75 75 75 75 75 74 75 74 73 73 73 74 73 74 74 73 72 74 74 73 73
73 70 64 50 42 40 42 44 46 49 49 48 50 54 56 57 48 50 53 59 59 62 65 72 76 76 75 75 75 75 74 74 74 74 74 74 74 73 73 73 73 74 73 74 73 72 73 74 74
68 68 63 42 42 42 43 46 47 47 48 46 49 53 59 57 52 52 55 58 58 60 66 75 76 76 75 75 75 75 75 75 74 74 74 74 74 74 74 73 74 73 74 73 73 73 73 73 73
67 62 51 41 41 43 44 48 47 45 46 46 46 54 56 56 57 53 56 58 57 60 67 72 77 75 76 75 75 76 75 74 75 73 74 74 72 73 73 73 73 74 73 73 73 73 72 72 72
57 48 39 38 41 44 46 49 48 47 48 47 51 55 57 59 54 53 55 57 57 60 62 70 76 76 75 75 75 75 74 73 74 74 74 73 74 73 72 72 73 72 73 71 72 73 73 71 72
50 42 37 39 39 43 46 49 46 47 47 46 48 53 55 57 56 56 56 55 57 59 62 66 71 75 75 72 74 75 74 75 75 74 73 74 72 73 73 72 72 71 71 73 73 73 72 72 71
49 46 36 39 38 44 48 48 48 48 48 50 51 54 53 56 58 58 58 56 57 59 63 66 70 70 69 68 75 75 74 74 73 73 74 74 74 74 73 72 71 70 70 70 72 73 73 71 71
48 45 36 38 40 45 49 48 50 51 49 51 52 50 54 57 57 57 57 58 59 60 62 62 64 67 66 66 70 74 73 74 75 74 74 73 71 73 73 72 69 70 70 70 71 71 71 72 73
38 35 35 39 39 43 47 49 50 50 51 53 53 52 56 57 57 57 56 57 58 60 60 60 61 62 63 64 73 71 68 69 70 70 74 76 73 70 69 70 70 70 71 71 71 72 73 73 65
36 35 38 43 44 41 45 47 49 50 48 51 55 55 56 56 56 56 56 57 59 61 60 60 61 63 61 67 65 65 64 65 66 70 71 72 72 76 68 69 70 70 71 71 73 70 69 70 69
35 35 40 46 47 43 43 46 47 47 47 50 55 56 55 55 54 53 54 55 58 61 61 61 62 66 64 63 62 65 65 63 64 67 71 75 72 72 71 70 74 77 72 74 71 71 71 71 68
33 36 40 46 47 44 44 45 48 48 49 53 56 55 53 52 52 52 52 54 57 59 61 62 64 69 68 68 64 63 63 63 70 69 71 75 72 74 74 72 70 71 72 71 71 72 71 71 70
36 35 39 43 44 45 44 46 49 51 52 54 55 55 53 50 50 51 52 53 56 58 59 59 62 69 69 69 70 67 66 66 68 71 73 72 71 74 74 73 73 73 74 72 72 73 71 72 75
36 33 38 39 41 44 45 47 47 52 53 53 54 54 53 51 50 52 53 54 57 57 58 59 61 64 70 70 70 68 65 64 65 65 69 71 72 75 74 75 76 76 75 75 77 74 73 70 69
35 33 32 39 37 44 44 51 50 52 52 53 53 53 53 51 50 54 56 59 61 61 62 61 58 61 67 68 69 67 66 65 67 71 71 72 72 74 75 72 74 76 71 70 77 76 75 75 75
34 30 32 34 35 39 40 42 51 52 51 52 53 53 53 53 53 56 58 60 62 66 65 62 61 59 64 68 68 69 70 68 67 74 73 74 74 72 72 70 73 74 70 72 72 75 76 75 75
34 29 29 31 35 36 35 36 48 50 50 52 52 54 54 54 54 57 59 59 60 65 68 67 63 65 68 68 70 67 66 67 71 74 73 74 75 73 73 70 73 72 68 73 76 74 75 75 74
31 32 30 33 34 33 35 36 44 50 49 50 51 53 53 53 54 57 59 60 60 64 68 67 66 70 67 67 67 67 66 71 73 74 74 72 73 73 74 73 73 72 69 70 71 71 71 66 69
29 32 30 31 35 34 33 35 36 48 49 49 49 51 54 54 53 55 58 59 60 62 67 68 69 71 70 67 68 67 73 73 74 73 74 73 72 73 73 73 71 73 65 71 70 70 64 62 71
30 30 30 33 33 33 32 33 36 38 45 49 49 49 51 53 53 54 55 58 59 61 64 68 71 72 72 72 70 70 70 74 70 69 71 72 72 73 74 73 72 70 68 62 69 67 71 67 66
26 27 27 30 33 28 32 28 42 42 43 47 48 49 48 52 52 52 52 54 57 60 63 67 72 73 73 74 73 76 71 68 69 70 71 72 73 73 73 72 69 68 64 69 67 65 67 69 62
23 24 26 31 29 28 28 26 30 40 37 41 48 46 48 50 51 52 51 53 53 57 61 65 70 75 76 75 76 71 73 68 68 68 72 74 76 73 70 67 67 67 63 68 68 68 68 61 61
20 23 27 29 25 23 25 25 26 33 48 34 38 42 47 48 51 52 53 54 55 56 61 64 70 76 75 74 74 75 75 71 68 69 72 71 73 69 66 66 68 69 69 67 66 68 68 67 66
19 19 21 22 22 19 21 23 28 31 35 34 35 36 44 48 50 51 53 54 58 59 61 65 71 74 75 73 73 74 73 74 73 73 68 71 63 61 68 69 69 68 70 68 69 69 68 67 66
18 13 16 22 16 13 19 25 28 30 31 31 35 36 43 48 49 51 53 56 60 61 63 65 70 73 73 73 74 75 75 71 69 72 69 63 60 63 70 69 69 69 69 68 69 66 64 68 65
11 16 10 6 6 9 21 46 34 30 28 29 31 35 41 46 49 51 52 55 59 62 64 66 70 73 72 72 75 75 75 73 72 73 71 63 66 68 70 69 68 68 68 68 69 66 67 69 66
8 12 10 11 18 18 16 27 23 32 30 28 30 33 38 46 49 51 53 55 58 61 64 66 70 72 71 70 73 73 73 74 74 73 71 68 69 71 71 70 68 68 71 70 71 68 68 68 62
8 8 14 14 12 14 17 22 33 31 28 28 31 33 37 40 48 49 52 56 57 61 64 65 68 70 69 69 72 74 72 73 74 71 68 69 71 72 72 71 71 68 69 70 70 68 67 64 63
7 12 11 17 23 21 22 24 35 27 25 25 28 34 40 42 46 49 53 57 59 62 65 66 68 68 68 70 74 72 73 75 71 70 68 69 71 72 72 72 71 70 70 69 67 64 63 62 61
Lifted_Index
-5 -6 -6 -6 -5 -4 -4 -3 -3 -2 -1 -1 -2 -2 -3 -3 -1 1 2 1 -1 -1 -2 -3 -4 -4 -4 -4 -4 -4 -4 -4 -4 -4 -4 -4 -4 -3 -3 -4 -4 -4 -4 -3 -4 -4 -4 -4 -4
-6 -6 -6 -6 -4 -3 -3 -3 -2 -2 -1 -1 -2 -2 -3 -2 -0 1 1 0 -1 -1 -2 -3 -4 -4 -4 -4 -4 -4 -4 -4 -4 -4 -4 -4 -4 -4 -4 -4 -4 -4 -4 -4 -4 -4 -4 -4 -4
-7 -6 -6 -5 -3 -3 -3 -2 -1 -1 -1 -1 -2 -2 -3 -2 0 1 1 0 -1 -1 -2 -3 -4 -4 -4 -4 -4 -4 -4 -4 -4 -4 -4 -4 -4 -4 -4 -4 -4 -4 -4 -4 -4 -4 -4 -4 -4
-7 -6 -5 -4 -3 -3 -2 -1 -1 -1 -1 -1 -1 -2 -2 -1 0 1 1 -0 -1 -2 -3 -4 -5 -4 -4 -4 -4 -4 -4 -4 -4 -4 -4 -4 -4 -4 -4 -4 -4 -4 -4 -4 -4 -4 -4 -4 -4
-6 -5 -4 -3 -3 -2 -2 -2 -1 -1 -1 -1 -1 -2 -2 -2 -0 1 0 -0 -1 -1 -3 -4 -5 -5 -4 -4 -4 -4 -4 -4 -4 -4 -4 -4 -4 -4 -4 -4 -4 -4 -4 -4 -4 -4 -4 -4 -4
-4 -3 -2 -2 -2 -2 -2 -2 -2 -1 -1 -1 -1 -2 -2 -2 -0 0 -0 -0 -0 -1 -2 -3 -5 -5 -4 -4 -4 -4 -4 -4 -4 -4 -4 -4 -4 -3 -3 -3 -3 -3 -3 -3 -4 -4 -4 -3 -3
-3 -2 -2 -2 -2 -2 -2 -2 -2 -2 -1 -1 -1 -2 -2 -2 -1 -1 -1 -0 -0 -1 -2 -3 -4 -5 -4 -3 -4 -4 -4 -4 -4 -4 -4 -4 -4 -4 -3 -3 -3 -3 -3 -3 -4 -4 -4 -3 -3
-3 -2 -2 -2 -2 -2 -2 -2 -2 -2 -1 -1 -2 -2 -2 -2 -1 -1 -1 -1 -1 -1 -2 -3 -4 -4 -3 -3 -4 -4 -4 -4 -4 -4 -4 -4 -4 -3 -3 -3 -2 -2 -2 -3 -3 -4 -4 -3 -3
-2 -2 -2 -2 -2 -2 -2 -3 -3 -2 -2 -2 -2 -2 -2 -2 -2 -2 -2 -1 -1 -1 -2 -2 -3 -3 -3 -3 -4 -4 -4 -4 -4 -4 -4 -4 -3 -3 -3 -2 -2 -2 -2 -2 -3 -3 -3 -3 -3
-1 -1 -1 -2 -2 -2 -2 -3 -3 -2 -2 -3 -3 -2 -2 -2 -2 -2 -2 -2 -2 -2 -2 -2 -2 -2 -2 -3 -3 -3 -3 -3 -3 -3 -3 -3 -3 -3 -3 -2 -2 -2 -2 -2 -2 -3 -3 -3 -3
-1 -1 -2 -2 -2 -2 -2 -3 -3 -2 -2 -3 -3 -2 -2 -2 -1 -2 -2 -2 -2 -2 -2 -2 -2 -2 -2 -3 -3 -3 -2 -2 -2 -3 -3 -4 -3 -3 -3 -2 -3 -2 -2 -2 -2 -2 -2 -3 -2
-1 -1 -2 -3 -3 -2 -2 -2 -3 -2 -2 -3 -3 -2 -2 -1 -1 -1 -1 -1 -2 -2 -2 -2 -2 -3 -3 -2 -2 -3 -2 -2 -2 -3 -3 -4 -4 -3 -3 -3 -3 -3 -3 -3 -2 -2 -2 -2 -2
-1 -1 -2 -2 -3 -2 -2 -2 -3 -3 -3 -3 -3 -2 -1 -1 -1 -1 -1 -1 -1 -2 -2 -2 -3 -3 -3 -3 -3 -3 -3 -3 -3 -3 -4 -5 -5 -4 -4 -4 -4 -4 -4 -3 -3 -2 -2 -2 -2
-1 -1 -2 -2 -2 -2 -2 -2 -3 -3 -3 -3 -3 -2 -1 -1 -0 -0 -0 -1 -1 -1 -2 -2 -3 -3 -4 -4 -3 -3 -3 -3 -3 -4 -4 -5 -5 -5 -5 -5 -5 -5 -4 -4 -4 -3 -2 -2 -2
-0 -1 -1 -1 -2 -2 -2 -2 -2 -3 -3 -3 -3 -2 -1 -0 -0 -0 -1 -1 -1 -1 -1 -1 -2 -3 -4 -4 -4 -4 -4 -3 -3 -4 -4 -5 -5 -5 -5 -5 -5 -5 -4 -4 -4 -4 -3 -3 -3
-0 -1 -1 -1 -1 -1 -2 -2 -3 -3 -3 -3 -3 -2 -1 -1 -0 -1 -1 -2 -3 -3 -2 -1 -1 -2 -3 -4 -4 -4 -4 -4 -4 -4 -4 -5 -5 -5 -5 -5 -5 -4 -4 -4 -4 -4 -4 -3 -3
-1 -1 -1 -1 -1 -1 -1 -2 -3 -3 -4 -3 -3 -3 -2 -1 -1 -1 -2 -2 -3 -3 -3 -2 -2 -2 -2 -3 -4 -4 -4 -4 -4 -5 -5 -5 -5 -5 -5 -5 -5 -4 -4 -3 -4 -4 -4 -4 -4
-1 -1 -1 -1 -0 -0 -1 -2 -3 -4 -4 -3 -3 -3 -3 -2 -2 -2 -2 -2 -3 -3 -4 -3 -2 -2 -3 -3 -4 -4 -4 -5 -5 -6 -6 -6 -6 -6 -5 -5 -5 -4 -4 -3 -3 -3 -3 -3 -3
-1 -1 -1 -0 -0 0 -1 -1 -2 -3 -4 -3 -3 -3 -3 -3 -2 -2 -2 -3 -3 -3 -4 -4 -3 -3 -4 -4 -4 -4 -5 -5 -6 -6 -7 -6 -6 -6 -6 -5 -5 -4 -4 -3 -3 -2 -2 -2 -2
-1 -1 -1 -0 0 0 0 -1 -2 -3 -3 -3 -3 -3 -3 -3 -3 -2 -2 -3 -3 -3 -4 -4 -4 -4 -5 -5 -5 -5 -5 -6 -6 -6 -6 -6 -6 -6 -6 -5 -5 -4 -3 -2 -2 -2 -1 -1 -2
-1 -1 -1 -0 -0 0 0 -0 -1 -2 -2 -3 -3 -3 -3 -3 -3 -3 -2 -3 -3 -3 -3 -4 -5 -5 -5 -5 -5 -5 -5 -5 -5 -5 -5 -6 -6 -6 -6 -5 -4 -3 -2 -1 -1 -1 -1 -1 -1
-0 -0 -1 -0 -0 -0 -0 -0 -1 -1 -2 -2 -3 -3 -3 -3 -3 -3 -2 -2 -2 -3 -3 -4 -5 -5 -6 -5 -5 -5 -5 -5 -4 -5 -5 -6 -6 -6 -5 -4 -3 -1 -1 -1 -1 -1 -1 -0 0
0 -0 -0 -0 -0 -1 -1 -1 -1 -1 -1 -2 -2 -3 -3 -3 -3 -3 -3 -2 -2 -2 -3 -4 -5 -6 -6 -6 -5 -5 -5 -5 -5 -5 -5 -6 -6 -5 -4 -2 -1 -1 -1 -1 -0 -0 0 1 1
1 1 -0 -0 -1 -1 -1 -1 -1 -1 -1 -1 -1 -2 -2 -3 -3 -3 -3 -3 -3 -2 -3 -4 -5 -6 -6 -6 -6 -6 -5 -5 -5 -5 -5 -5 -5 -4 -2 -1 -1 -1 -1 -1 -0 -0 0 1 1
2 1 -0 -1 -1 -1 -1 -1 -1 -1 -0 -0 -0 -1 -2 -3 -3 -3 -3 -4 -4 -3 -4 -5 -6 -7 -7 -6 -6 -6 -6 -6 -6 -6 -5 -4 -3 -2 -2 -2 -2 -2 -2 -1 -1 -1 -0 0 1
2 1 -0 -1 -1 -1 -1 -1 -1 -1 -0 -0 -0 -1 -2 -3 -3 -4 -4 -4 -4 -4 -5 -5 -6 -7 -7 -7 -7 -7 -7 -6 -6 -6 -5 -3 -2 -2 -2 -2 -2 -3 -2 -1 -1 -1 -0 0 1
1 1 -0 -1 -1 -1 -1 -0 -1 -1 -0 -0 -0 -1 -1 -2 -3 -4 -4 -4 -4 -5 -5 -6 -7 -7 -7 -7 -7 -7 -7 -7 -6 -6 -5 -3 -2 -3 -3 -3 -3 -3 -3 -2 -2 -1 -0 0 1
1 1 -0 -1 -1 -1 -1 -1 -1 -1 -1 -1 -1 -1 -1 -2 -3 -4 -4 -4 -4 -5 -6 -6 -7 -8 -7 -7 -7 -8 -8 -7 -7 -6 -4 -3 -3 -4 -4 -4 -3 -3 -3 -2 -2 -1 -0 1 2
1 1 0 -0 -1 -1 -1 -1 -0 -1 -1 -1 -1 -1 -1 -2 -3 -4 -4 -4 -4 -5 -6 -6 -7 -7 -7 -7 -7 -8 -8 -8 -7 -6 -4 -4 -4 -5 -5 -4 -3 -2 -2 -2 -1 -0 1 2 3
0 1 0 -0 -1 -1 -1 -1 -0 -1 -1 -1 -1 -1 -1 -2 -3 -4 -4 -4 -4 -5 -6 -7 -7 -7 -6 -7 -8 -8 -8 -8 -8 -6 -5 -4 -5 -5 -5 -4 -3 -2 -1 -1 -0 1 2 3 3